Location: Elstree
(51.6403°N, 0.2969°W)
Time: 00:40:33
(UTC+00:00)

Meteor 1-13 Rocket - Pass Details

Date: 30 June 2021
Orbit: 831 x 912 km, 81.3° (Epoch: 01 August)

Event Time Altitude Azimuth Distance (km) Brightness Sun altitude
Rises 02:53:09 0° 352° (N) 3,552 8.2 -6.6°
Reaches altitude 10° 02:56:04 10° 4° (N) 2,611 7.7 -6.3°
Maximum altitude 03:01:02 27° 61° (ENE) 1,697 6.8 -5.8°
Drops below altitude 10° 03:05:59 10° 118° (ESE) 2,596 6.9 -5.3°
Sets 03:08:51 0° 130° (SE) 3,528 7.5 -5.0°
